Location: Newark
(48.1500°N, 13.1167°E)
Time: 13:02:58
(UTC+00:00)

KAITUO 1B - Pass Details

Date: 06 December 2021
Orbit: 486 x 507 km, 97.4° (Epoch: 28 January)

Event Time Altitude Azimuth Distance (km) Brightness Sun altitude
Rises 16:23:19 0° 156° (SSE) 2,597 ? -11.0°
Reaches altitude 10° 16:25:24 10° 152° (SSE) 1,720 ? -11.3°
Maximum altitude 16:29:03 57° 74° (ENE) 604 ? -11.9°
Drops below altitude 10° 16:32:44 10° 355° (N) 1,742 ? -12.5°
Sets 16:34:52 0° 351° (N) 2,635 ? -12.8°
